Waarnemingen

Advertentie
Mijn weer
Guadalajara, Spanje (8226): temperatuur & dauwpunt: 03.07.2020 07:00:00 - 09.07.2020 07:00:00 (CEST)Guadalajara, Spanje (8226): windsnelheid: 03.07.2020 07:00:00 - 09.07.2020 07:00:00 (CEST)Guadalajara, Spanje (8226): windrichting: 03.07.2020 07:00:00 - 09.07.2020 07:00:00 (CEST)Guadalajara, Spanje (8226): luchtdruk: 03.07.2020 07:00:00 - 09.07.2020 07:00:00 (CEST)Guadalajara, Spanje (8226): zicht: 03.07.2020 07:00:00 - 09.07.2020 07:00:00 (CEST)Guadalajara, Spanje (8226): neerslag: 03.07.2020 07:00:00 - 09.07.2020 07:00:00 (CEST)
Datum & Tijd tt [°C] td [°C] ff [km/u] ff [kn] dd ppp [hPa] vv [km] rr [mm]
09.07.2020 07:00:00 19,6 9,2 5 3 NO 1014,8 20 0,0
09.07.2020 06:00:00 20,3 9,2 5 3 NNO 1014,6 20 0,0
09.07.2020 05:00:00 21,3 8,9 8 4 O 1013,9 20 -
09.07.2020 04:00:00 21,7 8,9 4 2 O 1013,6 20 0,0
09.07.2020 03:00:00 22,9 8,9 15 8 O 1013,1 20 0,0
09.07.2020 02:00:00 24,2 9,0 11 6 NO 1013,0 20 -
09.07.2020 01:00:00 24,4 9,2 8 4 NO 1013,0 20 0,0
09.07.2020 00:00:00 25,6 9,0 9 5 NNO 1012,4 20 0,0
08.07.2020 23:00:00 26,3 8,7 15 8 OZO 1011,0 20 -
08.07.2020 22:00:00 27,1 9,0 28 15 OZO 1009,3 20 0,0
08.07.2020 21:00:00 28,8 9,0 34 18 OZO 1009,3 20 0,0
08.07.2020 20:00:00 31,0 9,8 34 18 ZO 1008,7 20 -
08.07.2020 19:00:00 32,6 10,0 22 12 ZO 1007,9 20 0,0
08.07.2020 18:00:00 31,2 11,1 22 12 ZO 1008,5 20 0,0
08.07.2020 17:00:00 29,3 10,9 21 11 OZO 1009,3 20 -
08.07.2020 16:00:00 30,1 7,9 24 13 ZZO 1010,1 17 0,2
08.07.2020 15:00:00 35,7 6,9 13 7 ZZO 1007,9 20 0,0
08.07.2020 14:00:00 35,2 7,3 24 13 OZO 1008,6 20 -
08.07.2020 13:00:00 34,3 8,1 18 10 O 1009,2 20 0,0
08.07.2020 12:00:00 32,5 8,0 24 13 O 1009,6 20 0,0
08.07.2020 11:00:00 29,7 9,2 21 11 O 1011,3 20 -
08.07.2020 10:00:00 - - - - - - - -
08.07.2020 09:00:00 - - - - - - - -
08.07.2020 08:00:00 - - - - - - - -
08.07.2020 07:00:00 - - - - - - - -
08.07.2020 06:00:00 - - - - - - - -
08.07.2020 05:00:00 - - - - - - - -
08.07.2020 04:00:00 - - - - - - - -
08.07.2020 03:00:00 - - - - - - - -
08.07.2020 02:00:00 24,9 7,1 2 1 N 1011,8 20 -
08.07.2020 01:00:00 27,7 5,9 4 2 NO 1011,2 20 0,0
08.07.2020 00:00:00 30,5 5,0 2 1 ZW 1010,2 20 0,0
07.07.2020 23:00:00 31,6 4,4 11 6 ZW 1009,4 20 -
07.07.2020 22:00:00 33,1 5,6 11 6 ZW 1008,2 20 0,0
07.07.2020 21:00:00 35,1 8,0 9 5 WZW 1007,4 20 0,0
07.07.2020 20:00:00 36,8 7,8 8 4 W 1007,0 20 -
07.07.2020 19:00:00 37,5 7,4 9 5 WZW 1006,9 20 0,0
07.07.2020 18:00:00 37,1 6,2 13 7 ZW 1007,6 20 0,0
07.07.2020 17:00:00 37,4 6,4 8 4 W 1008,0 20 -
07.07.2020 16:00:00 36,4 8,3 8 4 Z 1008,7 20 0,0
07.07.2020 15:00:00 35,6 10,6 5 3 NNW 1009,1 20 0,0
07.07.2020 14:00:00 34,7 10,5 8 4 W 1010,1 20 -
07.07.2020 13:00:00 33,3 10,0 4 2 NW 1011,0 20 0,0
07.07.2020 12:00:00 30,6 5,1 5 3 NNW 1012,3 20 0,0
07.07.2020 11:00:00 27,8 2,8 4 2 NNO 1013,3 20 -
07.07.2020 10:00:00 24,4 1,9 5 3 N 1014,5 20 0,0
07.07.2020 09:00:00 21,7 1,3 5 3 NNO 1015,2 20 0,0
07.07.2020 08:00:00 19,3 1,7 4 2 N 1015,8 20 -
07.07.2020 07:00:00 18,4 1,4 4 2 N 1016,1 20 0,0
07.07.2020 06:00:00 19,7 3,4 8 4 N 1015,6 20 0,0
07.07.2020 05:00:00 20,6 8,9 9 5 NO 1015,3 20 -
07.07.2020 04:00:00 21,2 9,4 5 3 ONO 1015,1 20 0,0
07.07.2020 03:00:00 22,2 9,7 5 3 N 1014,9 20 0,0
07.07.2020 02:00:00 23,2 10,3 8 4 NO 1014,5 20 -
07.07.2020 01:00:00 24,5 10,7 11 6 NO 1014,4 20 0,0
07.07.2020 00:00:00 26,1 11,1 9 5 NNO 1014,0 20 0,0
06.07.2020 23:00:00 28,0 11,1 11 6 NO 1012,9 20 -
06.07.2020 22:00:00 30,8 11,2 16 9 ONO 1011,0 20 0,0
06.07.2020 21:00:00 32,9 12,0 11 6 NO 1009,8 20 0,0
06.07.2020 20:00:00 34,8 11,9 11 6 NO 1009,2 20 -
06.07.2020 19:00:00 36,1 11,7 13 7 NNW 1009,0 20 0,0
06.07.2020 18:00:00 35,8 12,1 8 4 NW 1009,5 20 0,0
06.07.2020 17:00:00 35,1 12,1 8 4 NO 1010,1 20 -
06.07.2020 16:00:00 35,5 11,8 8 4 NO 1010,4 20 0,0
06.07.2020 15:00:00 34,3 11,4 9 5 NO 1011,4 20 0,0
06.07.2020 14:00:00 33,5 11,4 9 5 N 1012,2 20 -
06.07.2020 13:00:00 32,8 10,8 5 3 N 1012,6 20 0,0
06.07.2020 12:00:00 31,6 11,4 5 3 O 1013,1 20 0,0
06.07.2020 11:00:00 29,0 11,1 8 4 N 1014,1 20 -
06.07.2020 10:00:00 27,3 12,1 8 4 NO 1014,8 20 0,0
06.07.2020 09:00:00 24,4 12,4 11 6 NO 1015,8 20 0,0
06.07.2020 08:00:00 21,7 11,4 5 3 NNO 1016,3 20 -
06.07.2020 07:00:00 20,4 11,1 11 6 ONO 1016,5 20 0,0
06.07.2020 06:00:00 20,4 10,2 11 6 ONO 1016,3 20 0,0
06.07.2020 05:00:00 21,6 10,1 4 2 N 1015,8 20 -
06.07.2020 04:00:00 22,0 9,5 11 6 ONO 1015,8 20 0,0
06.07.2020 03:00:00 23,1 8,4 5 3 NO 1015,7 20 0,0
06.07.2020 02:00:00 24,5 7,6 4 2 N 1015,5 17 -
06.07.2020 01:00:00 25,8 5,4 4 2 N 1015,1 20 0,0
06.07.2020 00:00:00 26,7 5,6 4 2 N 1014,6 20 0,0
05.07.2020 23:00:00 28,0 4,9 2 1 NNO 1014,0 20 -
05.07.2020 22:00:00 30,6 5,1 4 2 NO 1012,9 19 0,0
05.07.2020 21:00:00 33,5 4,2 4 2 ZZW 1011,8 20 0,0
05.07.2020 20:00:00 35,4 3,8 5 3 ZZW 1011,1 20 -
05.07.2020 19:00:00 35,9 3,2 8 4 O 1011,2 20 0,0
05.07.2020 18:00:00 35,7 3,0 9 5 W 1011,8 20 0,0
05.07.2020 17:00:00 35,6 5,0 5 3 ZZO 1012,6 20 -
05.07.2020 16:00:00 34,4 4,9 13 7 ONO 1013,4 20 0,0
05.07.2020 15:00:00 33,5 5,9 5 3 WNW 1014,2 2,7 0,0
05.07.2020 14:00:00 33,0 2,9 4 2 WNW 1015,2 20 -
05.07.2020 13:00:00 31,0 9,8 5 3 N 1016,2 7 0,0
05.07.2020 12:00:00 29,4 10,5 5 3 NW 1017,0 2,6 0,0
05.07.2020 11:00:00 27,0 7,9 5 3 N 1018,0 20 -
05.07.2020 10:00:00 23,5 7,1 5 3 N 1019,4 20 0,0
05.07.2020 09:00:00 20,7 5,5 5 3 NNO 1020,1 20 0,0
05.07.2020 08:00:00 17,6 4,5 8 4 ONO 1021,1 20 -
05.07.2020 07:00:00 15,9 3,7 2 1 O 1021,5 20 0,0
05.07.2020 06:00:00 17,0 4,0 4 2 NO 1021,0 20 0,0
05.07.2020 05:00:00 18,7 4,5 4 2 N 1020,3 20 -
05.07.2020 04:00:00 20,4 3,6 5 3 ZZW 1019,9 20 0,0
05.07.2020 03:00:00 20,6 3,8 4 2 NO 1020,1 20 0,0
05.07.2020 02:00:00 21,9 3,5 8 4 NO 1020,0 20 -
05.07.2020 01:00:00 23,6 3,0 11 6 NNO 1019,3 20 0,0
05.07.2020 00:00:00 24,2 -0,2 9 5 ONO 1018,7 20 0,0
04.07.2020 23:00:00 26,0 -1,0 9 5 ONO 1017,6 20 -
04.07.2020 22:00:00 28,4 0,1 9 5 ONO 1016,1 20 0,0
04.07.2020 21:00:00 31,4 2,5 4 2 NO 1014,8 20 0,0
04.07.2020 20:00:00 33,3 2,2 5 3 NNO 1014,0 20 -
04.07.2020 19:00:00 33,7 1,5 4 2 WNW 1014,1 20 0,0
04.07.2020 18:00:00 33,7 1,5 5 3 O 1014,5 20 0,0
04.07.2020 17:00:00 33,6 1,4 4 2 WZW 1014,9 20 -
04.07.2020 16:00:00 32,6 1,6 5 3 Z 1015,6 20 0,0
04.07.2020 15:00:00 31,2 4,1 5 3 NNW 1016,4 20 0,0
04.07.2020 14:00:00 30,9 5,3 4 2 WZW 1017,1 20 -
04.07.2020 13:00:00 28,9 3,7 5 3 NNW 1018,3 20 0,0
04.07.2020 12:00:00 27,9 6,6 5 3 WZW 1018,4 20 0,0
04.07.2020 11:00:00 25,4 8,0 8 4 N 1019,1 20 -
04.07.2020 10:00:00 22,3 8,8 5 3 N 1019,9 20 0,0
04.07.2020 09:00:00 19,2 8,2 5 3 N 1020,7 20 0,0
04.07.2020 08:00:00 18,0 7,7 4 2 NNO 1020,9 20 -
04.07.2020 07:00:00 17,1 7,7 2 1 N 1020,9 20 0,0
04.07.2020 06:00:00 17,7 7,4 4 2 N 1020,2 20 0,0
04.07.2020 05:00:00 18,1 6,0 9 5 NNO 1019,9 20 -
04.07.2020 04:00:00 19,0 4,7 13 7 ONO 1019,6 20 0,0
04.07.2020 03:00:00 19,5 4,0 15 8 ONO 1019,5 20 0,0
04.07.2020 02:00:00 20,4 4,4 13 7 ONO 1019,1 20 -
04.07.2020 01:00:00 21,9 3,5 9 5 NO 1018,0 20 0,0
04.07.2020 00:00:00 23,3 4,7 9 5 ONO 1017,4 20 0,0
03.07.2020 23:00:00 25,0 4,7 8 4 ONO 1016,2 20 -
03.07.2020 22:00:00 27,8 4,1 8 4 NO 1014,5 20 0,0
03.07.2020 21:00:00 29,4 4,1 4 2 N 1013,6 20 0,0
03.07.2020 20:00:00 31,3 4,1 5 3 Z 1012,8 20 -
03.07.2020 19:00:00 31,1 3,2 9 5 O 1012,9 20 0,0
03.07.2020 18:00:00 31,4 3,4 8 4 ZW 1013,0 20 0,0
03.07.2020 17:00:00 30,7 4,4 8 4 ZW 1013,6 20 -
03.07.2020 16:00:00 29,1 3,8 5 3 NNO 1014,3 20 0,0
03.07.2020 15:00:00 28,6 7,2 9 5 WNW 1014,7 20 0,0
03.07.2020 14:00:00 27,9 8,7 8 4 W 1015,1 20 -
03.07.2020 13:00:00 26,4 9,7 8 4 N 1015,7 20 0,0
03.07.2020 12:00:00 24,5 10,4 9 5 NO 1016,6 20 0,0
03.07.2020 11:00:00 22,9 11,6 9 5 NO 1016,8 20 -
03.07.2020 10:00:00 20,4 11,3 13 7 NO 1017,7 20 0,0
03.07.2020 09:00:00 18,2 10,8 15 8 NO 1018,3 20 0,0
03.07.2020 08:00:00 16,1 10,2 13 7 NO 1018,4 20 -
03.07.2020 07:00:00 15,1 9,9 15 8 NO 1018,5 20 0,0

tt = temperatuur
td = dauwpunt
ff = windsnelheid
dd = windrichting
ppp = luchtdruk
vv = zicht
rr = neerslag

Weerstations in de omgeving